Yakima, WA
on Wednesday, February 27, 2013

Wednesday
Previous Day Next Day
Daily Summary
 ActualAverageRecord
Temperature
Mean Temperature °F 39°F  
Max Temperature 56°F 50°F 65°F (1972)
Min Temperature 22°F 27°F 7°F (1960)
Degree Days
Heating Degree Days 26 26  
Month to date heating degree days 675 783  
Since 1 July heating degree days 3944 4501  
Cooling Degree Days 0 0  
Month to date cooling degree days 0 0  
Year to date cooling degree days 0 0  
Moisture
Dew Point 26°F   
Average Humidity 58    
Maximum Humidity 81    
Minimum Humidity 35    
Precipitation
Precipitation T in 0.02 in 0.40 in (1976)
Month to date precipitation T 0.75  
Year to date precipitation 0.10 1.89  
Snow
Snow 0.00 in 0.00 in 4.00 in (1976)
Month to date snowfall 0.0 2.5  
Year to date snowfall 1.1 7.8  
Since 1 July snowfall 15.3 20.8  
Snow Depth 0.00 in   
Wind
Wind Speed 2 mph   
Max Wind Speed 9 mph   
Max Gust Speed 12 mph   
Visibility 10 miles   
Events     

Key: T is trace of precipitation, MM is missing value
Source: NWS Daily Summary
Time(PST)TemperatureDew PointHumidity Pressure Visibility Wind DirectionWind SpeedGust SpeedPrecipitationEvents Conditions
12:53 AM 28.9°F 21.0°F 72% 30.22 in 10.0 miles WSW 4.6 mph - N/A   Clear
1:53 AM 28.0°F 21.0°F 75% 30.23 in 10.0 miles Variable 3.5 mph - N/A   Clear
2:53 AM 27.0°F 19.9°F 75% 30.23 in 10.0 miles WNW 3.5 mph - N/A   Clear
3:53 AM 26.1°F 19.9°F 78% 30.22 in 10.0 miles Calm Calm - N/A   Clear
4:53 AM 24.1°F 18.0°F 77% 30.22 in 10.0 miles Calm Calm - N/A   Clear
5:53 AM 24.1°F 19.0°F 81% 30.25 in 10.0 miles West 5.8 mph - N/A   Clear
6:53 AM 24.1°F 18.0°F 77% 30.27 in 10.0 miles West 4.6 mph - N/A   Clear
7:53 AM 28.9°F 21.9°F 75% 30.30 in 10.0 miles Calm Calm - N/A   Clear
8:53 AM 36.0°F 26.1°F 67% 30.31 in 10.0 miles Calm Calm - N/A   Clear
9:53 AM 41.0°F 26.1°F 55% 30.31 in 10.0 miles Calm Calm - N/A   Clear
10:53 AM 46.0°F 28.0°F 50% 30.30 in 10.0 miles Calm Calm - N/A   Clear
11:53 AM 50.0°F 28.9°F 44% 30.29 in 10.0 miles East 3.5 mph - N/A   Clear
12:53 PM 51.1°F 28.9°F 43% 30.28 in 10.0 miles East 3.5 mph - N/A   Clear
1:53 PM 53.1°F 28.9°F 40% 30.25 in 10.0 miles NE 3.5 mph - N/A   Clear
2:53 PM 55.0°F 28.9°F 37% 30.25 in 10.0 miles Variable 3.5 mph - N/A   Scattered Clouds
3:53 PM 55.0°F 30.0°F 38% 30.23 in 10.0 miles Calm Calm - N/A   Clear
4:53 PM 53.1°F 30.0°F 41% 30.24 in 10.0 miles East 3.5 mph - N/A   Mostly Cloudy
5:53 PM 50.0°F 28.9°F 44% 30.24 in 10.0 miles Calm Calm - N/A   Mostly Cloudy
6:53 PM 48.9°F 30.0°F 48% 30.22 in 10.0 miles Calm Calm - N/A   Mostly Cloudy
7:53 PM 48.9°F 30.9°F 50% 30.22 in 10.0 miles WNW 5.8 mph - N/A   Overcast
8:53 PM 46.0°F 30.9°F 56% 30.24 in 10.0 miles SW 4.6 mph - 0.00 in   Overcast
9:53 PM 44.6°F 32.0°F 61% 30.22 in 10.0 miles West 4.6 mph - N/A   Overcast
11:53 PM 43.0°F 32.0°F 65% 30.24 in 10.0 miles WNW 4.6 mph - N/A   Overcast
Moon Phase
Feb. 27 Mar. 04 Mar. 11 Mar. 19 Mar. 27
Sunrise:06:44 AM (PST) Moon Rise:08:25 PM (PST)2/27
Sunset:05:45 PM (PST) Moon Set:07:12 AM (PST)2/27

Copyright © 2014 The Weather Underground, Inc.